| time (UTC) | temp C | wind direction | speed KPH | gust KPH | rain 1hr cm | rain 24hr cm | rain mn cm | humidity % | barometer mb |
| 20260905173106 | 33 | 134 | 3.2 | 17.7 | 0.00 | 0.00 | 0.00 | 52 | 1011.7 |
| 20260905172055 | 33 | 211 | 4.8 | 14.5 | 0.00 | 0.00 | 0.00 | 53 | 1011.9 |
| 20260905171100 | 33 | 159 | 4.8 | 14.5 | 0.00 | 0.00 | 0.00 | 50 | 1011.9 |
| 20260905170033 | 33 | 97 | 4.8 | 17.7 | 0.00 | 0.00 | 0.00 | 52 | 1012.0 |
| 20260905163916 | 32 | 221 | 3.2 | 16.1 | 0.00 | 0.00 | 0.00 | 55 | 1012.1 |
| 20260905162906 | 32 | 212 | 4.8 | 12.9 | 0.00 | 0.00 | 0.00 | 59 | 1012.2 |
| 20260905161858 | 32 | 153 | 1.6 | 9.7 | 0.00 | 0.00 | 0.00 | 58 | 1012.2 |
| 20260905160913 | 31 | 205 | 1.6 | 11.3 | 0.00 | 0.00 | 0.00 | 64 | 1012.2 |
| 20260905155915 | 31 | 250 | 1.6 | 11.3 | 0.00 | 0.00 | 0.00 | 65 | 1012.2 |
| 20260905154842 | 31 | 239 | 1.6 | 8.0 | 0.00 | 0.00 | 0.00 | 66 | 1012.2 |
| 20260905153853 | 30 | 244 | 1.6 | 8.0 | 0.00 | 0.00 | 0.00 | 69 | 1012.2 |
| 20260905152846 | 30 | 163 | 3.2 | 16.1 | 0.00 | 0.00 | 0.00 | 70 | 1012.1 |
| 20260905151840 | 30 | 205 | 4.8 | 16.1 | 0.00 | 0.00 | 0.00 | 71 | 1012.1 |
| 20260905150815 | 30 | 186 | 3.2 | 11.3 | 0.00 | 0.00 | 0.00 | 74 | 1012.2 |
| 20260905145756 | 29 | 226 | 3.2 | 16.1 | 0.00 | 0.00 | 0.00 | 76 | 1012.2 |
| 20260905144820 | 28 | 216 | 3.2 | 16.1 | 0.00 | 0.00 | 0.00 | 78 | 1012.1 |
| 20260905143825 | 28 | 211 | 3.2 | 12.9 | 0.00 | 0.00 | 0.00 | 81 | 1012.0 |
| 20260905141701 | 27 | 178 | 1.6 | 11.3 | 0.00 | 0.00 | 0.00 | 85 | 1012.0 |
| 20260905140654 | 27 | 175 | 3.2 | 9.7 | 0.00 | 0.00 | 0.00 | 86 | 1012.0 |
| 20260905135638 | 26 | 198 | 3.2 | 9.7 | 0.00 | 0.00 | 0.00 | 90 | 1011.8 |
| 20260905133531 | 25 | 181 | 1.6 | 8.0 | 0.00 | 0.00 | 0.00 | 92 | 1011.8 |
| 20260905132458 | 25 | 208 | 1.6 | 8.0 | 0.00 | 0.00 | 0.00 | 92 | 1011.7 |
| 20260905131507 | 25 | 173 | 1.6 | 6.4 | 0.00 | 0.00 | 0.00 | 93 | 1011.5 |
| 20260905130519 | 25 | 196 | 1.6 | 6.4 | 0.00 | 0.00 | 0.00 | 93 | 1011.4 |
| 20260905124436 | 25 | 153 | 1.6 | 6.4 | 0.00 | 0.00 | 0.00 | 94 | 1011.1 |
| 20260905123408 | 24 | 193 | 0.0 | 3.2 | 0.00 | 0.00 | 0.00 | 94 | 1011.1 |
| 20260905121301 | 24 | 196 | 0.0 | 0.0 | 0.00 | 0.00 | 0.00 | 93 | 1011.0 |
| 20260905120237 | 24 | 196 | 0.0 | 0.0 | 0.00 | 0.00 | 0.00 | 93 | 1011.0 |
| 20260905114027 | 24 | 205 | 1.6 | 4.8 | 0.00 | 0.00 | 0.00 | 93 | 1010.7 |
| 20260905113018 | 24 | 191 | 0.0 | 3.2 | 0.00 | 0.00 | 0.00 | 92 | 1010.7 |
| 20260905111949 | 24 | 191 | 0.0 | 3.2 | 0.00 | 0.00 | 0.00 | 92 | 1010.6 |
| 20260905110925 | 24 | 191 | 0.0 | 0.0 | 0.00 | 0.00 | 0.00 | 91 | 1010.6 |
| 20260905105906 | 24 | 191 | 0.0 | 3.2 | 0.00 | 0.00 | 0.00 | 91 | 1010.6 |
| 20260905104856 | 24 | 191 | 0.0 | 3.2 | 0.00 | 0.00 | 0.00 | 91 | 1010.5 |
| 20260905101702 | 25 | 167 | 1.6 | 6.4 | 0.00 | 0.00 | 0.00 | 91 | 1010.3 |
| 20260905095541 | 25 | 198 | 0.0 | 0.0 | 0.00 | 0.00 | 0.00 | 91 | 1010.4 |
| 20260905092253 | 25 | 171 | 3.2 | 11.3 | 0.00 | 0.00 | 0.00 | 90 | 1010.2 |
| 20260905090210 | 25 | 167 | 3.2 | 9.7 | 0.00 | 0.00 | 0.00 | 89 | 1010.3 |
| 20260905085227 | 25 | 165 | 3.2 | 9.7 | 0.00 | 0.00 | 0.00 | 89 | 1010.4 |
| 20260905083106 | 25 | 161 | 4.8 | 16.1 | 0.00 | 0.00 | 0.00 | 88 | 1010.4 |
| 20260905075828 | 25 | 170 | 3.2 | 9.7 | 0.00 | 0.00 | 0.00 | 87 | 1010.7 |
| 20260905073706 | 26 | 196 | 3.2 | 11.3 | 0.00 | 0.00 | 0.00 | 86 | 1010.7 |
| 20260905072637 | 26 | 193 | 4.8 | 11.3 | 0.00 | 0.00 | 0.00 | 85 | 1010.9 |
| 20260905071612 | 26 | 123 | 4.8 | 14.5 | 0.00 | 0.00 | 0.00 | 85 | 1010.9 |
| 20260905070543 | 26 | 109 | 4.8 | 14.5 | 0.00 | 0.00 | 0.00 | 85 | 1011.0 |
| 20260905065600 | 26 | 169 | 4.8 | 12.9 | 0.00 | 0.00 | 0.00 | 85 | 1011.0 |
| 20260905064603 | 26 | 179 | 4.8 | 16.1 | 0.00 | 0.00 | 0.00 | 84 | 1011.0 |
| 20260905063622 | 26 | 169 | 3.2 | 16.1 | 0.00 | 0.00 | 0.00 | 84 | 1011.1 |
| 20260905062632 | 26 | 172 | 4.8 | 11.3 | 0.00 | 0.00 | 0.00 | 83 | 1011.1 |
| 20260905061612 | 26 | 175 | 4.8 | 14.5 | 0.00 | 0.00 | 0.00 | 83 | 1011.0 |
| 20260905060608 | 26 | 166 | 4.8 | 14.5 | 0.00 | 0.00 | 0.00 | 82 | 1011.0 |
| 20260905055546 | 26 | 158 | 4.8 | 14.5 | 0.00 | 0.00 | 0.00 | 82 | 1011.0 |
| 20260905054603 | 26 | 142 | 4.8 | 12.9 | 0.00 | 0.00 | 0.00 | 81 | 1011.0 |
| 20260905052447 | 26 | 184 | 4.8 | 9.7 | 0.00 | 0.00 | 0.00 | 80 | 1011.0 |
| 20260905051431 | 26 | 141 | 3.2 | 9.7 | 0.00 | 0.00 | 0.00 | 79 | 1011.1 |
| 20260905050443 | 27 | 139 | 3.2 | 9.7 | 0.00 | 0.00 | 0.00 | 79 | 1011.2 |
| 20260905044322 | 27 | 167 | 4.8 | 14.5 | 0.00 | 0.00 | 0.00 | 78 | 1011.2 |
| 20260905043322 | 27 | 169 | 4.8 | 14.5 | 0.00 | 0.00 | 0.00 | 77 | 1011.2 |
| 20260905042250 | 27 | 155 | 3.2 | 12.9 | 0.00 | 0.00 | 0.00 | 77 | 1011.1 |
| 20260905041250 | 27 | 159 | 3.2 | 11.3 | 0.00 | 0.00 | 0.00 | 76 | 1011.1 |
| 20260905035120 | 27 | 169 | 3.2 | 11.3 | 0.00 | 0.00 | 0.00 | 74 | 1011.1 |
| 20260905034127 | 27 | 175 | 1.6 | 9.7 | 0.00 | 0.00 | 0.00 | 73 | 1011.1 |
| 20260905033058 | 27 | 187 | 3.2 | 11.3 | 0.00 | 0.00 | 0.00 | 73 | 1011.0 |
| 20260905032024 | 27 | 150 | 3.2 | 11.3 | 0.00 | 0.00 | 0.00 | 72 | 1011.1 |
| 20260905031000 | 27 | 198 | 1.6 | 11.3 | 0.00 | 0.00 | 0.00 | 71 | 1010.9 |
| 20260905025928 | 27 | 107 | 1.6 | 9.7 | 0.00 | 0.00 | 0.00 | 70 | 1010.9 |
| 20260905023757 | 28 | 131 | 1.6 | 8.0 | 0.00 | 0.00 | 0.00 | 69 | 1010.5 |
| 20260905022731 | 28 | 121 | 1.6 | 6.4 | 0.00 | 0.00 | 0.00 | 68 | 1010.5 |
| 20260905021706 | 28 | 140 | 1.6 | 6.4 | 0.00 | 0.00 | 0.00 | 68 | 1010.4 |
| 20260905020731 | 28 | 127 | 1.6 | 6.4 | 0.00 | 0.00 | 0.00 | 67 | 1010.3 |
| 20260905015735 | 28 | 143 | 1.6 | 12.9 | 0.00 | 0.00 | 0.00 | 67 | 1010.3 |
| 20260905014754 | 28 | 154 | 3.2 | 12.9 | 0.00 | 0.00 | 0.00 | 66 | 1010.2 |
| 20260905013744 | 29 | 144 | 3.2 | 9.7 | 0.00 | 0.00 | 0.00 | 65 | 1010.1 |
| 20260905012730 | 29 | 107 | 3.2 | 11.3 | 0.00 | 0.00 | 0.00 | 65 | 1010.1 |
| 20260905010557 | 30 | 110 | 6.4 | 14.5 | 0.00 | 0.00 | 0.00 | 63 | 1009.9 |
| 20260905005531 | 30 | 149 | 4.8 | 14.5 | 0.00 | 0.00 | 0.00 | 62 | 1009.8 |
| 20260905003359 | 31 | 182 | 6.4 | 20.9 | 0.00 | 0.00 | 0.00 | 60 | 1009.7 |
| 20260905002326 | 31 | 111 | 8.0 | 20.9 | 0.00 | 0.00 | 0.00 | 59 | 1009.6 |
| 20260905001304 | 32 | 119 | 6.4 | 17.7 | 0.00 | 0.00 | 0.00 | 57 | 1009.4 |
| 20260905000241 | 32 | 173 | 6.4 | 17.7 | 0.00 | 0.00 | 0.00 | 53 | 1009.2 |
| 20260904235247 | 33 | 138 | 4.8 | 14.5 | 0.00 | 0.00 | 0.00 | 50 | 1009.1 |
| 20260904233030 | 33 | 153 | 4.8 | 16.1 | 0.00 | 0.00 | 0.00 | 45 | 1008.9 |
| 20260904232006 | 33 | 213 | 4.8 | 17.7 | 0.00 | 0.00 | 0.00 | 43 | 1009.1 |
| 20260904230931 | 33 | 181 | 6.4 | 17.7 | 0.00 | 0.00 | 0.00 | 43 | 1009.1 |
| 20260904225916 | 34 | 180 | 6.4 | 16.1 | 0.00 | 0.00 | 0.00 | 45 | 1009.3 |
| 20260904223752 | 33 | 229 | 4.8 | 17.7 | 0.00 | 0.00 | 0.00 | 49 | 1009.3 |
| 20260904222732 | 33 | 190 | 6.4 | 17.7 | 0.00 | 0.00 | 0.00 | 48 | 1009.4 |
| 20260904221730 | 33 | 115 | 6.4 | 20.9 | 0.00 | 0.00 | 0.00 | 47 | 1009.4 |
| 20260904220658 | 34 | 170 | 6.4 | 20.9 | 0.00 | 0.00 | 0.00 | 51 | 1009.5 |
| 20260904215633 | 33 | 136 | 8.0 | 17.7 | 0.00 | 0.00 | 0.00 | 53 | 1009.4 |
| 20260904214641 | 34 | 128 | 6.4 | 17.7 | 0.00 | 0.00 | 0.00 | 49 | 1009.5 |
| 20260904212544 | 34 | 133 | 6.4 | 20.9 | 0.00 | 0.00 | 0.00 | 48 | 1009.8 |
| 20260904211543 | 34 | 221 | 8.0 | 20.9 | 0.00 | 0.00 | 0.00 | 48 | 1009.8 |
| 20260904210520 | 33 | 202 | 8.0 | 19.3 | 0.00 | 0.00 | 0.00 | 52 | 1010.0 |
| 20260904203250 | 33 | 191 | 3.2 | 17.7 | 0.00 | 0.00 | 0.00 | 56 | 1010.3 |
| 20260904202259 | 33 | 205 | 4.8 | 17.7 | 0.00 | 0.00 | 0.00 | 56 | 1010.4 |
| 20260904201304 | 33 | 169 | 4.8 | 17.7 | 0.00 | 0.00 | 0.00 | 58 | 1010.5 |
| 20260904200300 | 32 | 171 | 3.2 | 12.9 | 0.00 | 0.00 | 0.00 | 60 | 1010.6 |
| 20260904195323 | 32 | 173 | 3.2 | 11.3 | 0.00 | 0.00 | 0.00 | 61 | 1010.8 |
| 20260904185804 | 31 | 126 | 4.8 | 16.1 | 0.00 | 0.00 | 0.00 | 67 | 1011.3 |
| 20260904184759 | 30 | 123 | 4.8 | 16.1 | 0.00 | 0.00 | 0.00 | 67 | 1011.4 |
| 20260904183821 | 30 | 121 | 3.2 | 12.9 | 0.00 | 0.00 | 0.00 | 69 | 1011.6 |
| 20260904182846 | 30 | 152 | 6.4 | 12.9 | 0.00 | 0.00 | 0.00 | 69 | 1011.7 |
| 20260904181849 | 30 | 153 | 4.8 | 14.5 | 0.00 | 0.00 | 0.00 | 68 | 1011.7 |
| 20260904180823 | 30 | 201 | 4.8 | 14.5 | 0.00 | 0.00 | 0.00 | 70 | 1011.8 |
| 20260904175801 | 30 | 199 | 3.2 | 11.3 | 0.00 | 0.00 | 0.00 | 69 | 1011.8 |
| 20260904174803 | 30 | 205 | 4.8 | 12.9 | 0.00 | 0.00 | 0.00 | 69 | 1012.0 |
| 20260904173820 | 30 | 144 | 3.2 | 17.7 | 0.00 | 0.00 | 0.00 | 71 | 1012.1 |